Overview Statistics Trail Chart Weather Telemetry Raw packets
 

This is the latest recevied weather packets stored in our database for station/object N0QV. If no packets are shown the sender has not sent any weather packets the latest 10 day(s).

<< 106 107 108 109 110 111 112 >>
Time Temp. Humidity Pressure Rain* Wind** Luminosity Snow
1787867261 27.22° C 46% 1018.4 hPa 0 mm - 382 W/m² -
1787866957 27.22° C 46% 1018.7 hPa 0 mm - 375 W/m² -
1787866652 27.22° C 47% 1018.6 hPa 0 mm - 402 W/m² -
1787866350 27.22° C 46% 1018.5 hPa 0 mm - 402 W/m² -
1787866045 27.22° C 45% 1018.6 hPa 0 mm - 392 W/m² -
1787865741 27.22° C 49% 1018.8 hPa 0 mm - 435 W/m² -
1787865436 26.67° C 48% 1018.8 hPa 0 mm - 456 W/m² -
1787865136 27.22° C 47% 1018.8 hPa 0 mm - 431 W/m² -
1787864833 27.22° C 48% 1018.8 hPa 0 mm - 447 W/m² -
1787864532 27.22° C 49% 1018.6 hPa 0 mm - 477 W/m² -
1787864227 27.78° C 47% 1018.8 hPa 0 mm - 521 W/m² -
1787863922 27.22° C 47% 1018.9 hPa 0 mm - 523 W/m² -
1787863620 27.22° C 47% 1018.7 hPa 0 mm - 498 W/m² -
1787863314 26.67° C 50% 1019.1 hPa 0 mm - 463 W/m² -
1787863010 26.67° C 49% 1018.9 hPa 0 mm - 468 W/m² -
1787862705 26.11° C 49% 1018.9 hPa 0 mm - 262 W/m² -
1787862400 27.22° C 48% 1019.1 hPa 0 mm - 162 W/m² -
1787862096 27.22° C 48% 1019 hPa 0 mm - 535 W/m² -
1787861795 27.22° C 48% 1019.1 hPa 0 mm - 557 W/m² -
1787861493 27.22° C 48% 1019 hPa 0 mm - 578 W/m² -
1787861189 26.67° C 50% 1019.2 hPa 0 mm - 528 W/m² -
1787860887 27.22° C 50% 1019.2 hPa 0 mm - 490 W/m² -
1787860582 26.67° C 49% 1019 hPa 0 mm - 513 W/m² -
1787860277 26.67° C 49% 1019.1 hPa 0 mm - 569 W/m² -
1787859973 27.22° C 49% 1019 hPa 0 mm - 200 W/m² -

* Rain latest hour (hover to see other rain measurements)
** Current wind speed in m/s (hover to see current wind gust speed)